EJU84QM LEMG-LIMC

Flight info

Callsign EJU84QM
Flight time 2h 4m
Altitude 34000
Route RIXUR M445 SOPET DCT DIKUT DCT TORDU DCT LOTOS DCT EBROX DCT PEXOT DCT RODRA DCT BCN DCT SALON DCT AGENA DCT BODEQ DCT LUMAS DCT UNANA DCT STP DCT RAPED DCT PIGOS DCT EKSID DCT NOSTA DCT NOPMU DCT EGHIN DCT ANAKI/N0449F300 P860 DEVOX
Aircraft A320/M-SDE3FGHIRWY/LB1

Departure

Time 2026-05-05 11:00
Airport Málaga-Costa del Sol Airport (LEMG)

Arrival

Time 2026-05-05 13:04
Airport Milan Malpensa International Airport (LIMC)
Time Latitude Longitude Altitude Speed Heading
2026-05-05 10:30 36.67665 -4.49466 42 ft 0 kts 43°
2026-05-05 10:51 36.67663 -4.49468 42 ft 2 kts 43°
2026-05-05 10:52 36.67644 -4.49489 40 ft 4 kts 34°
2026-05-05 10:52 36.67620 -4.49505 39 ft 4 kts 17°
2026-05-05 10:52 36.67596 -4.49507 41 ft 4 kts 333°
2026-05-05 10:52 36.67587 -4.49501 40 ft 0 kts 311°
2026-05-05 10:54 36.67589 -4.49504 42 ft 2 kts 311°
2026-05-05 10:54 36.67603 -4.49524 40 ft 5 kts 312°
2026-05-05 10:55 36.67645 -4.49582 42 ft 11 kts 313°
2026-05-05 10:55 36.67703 -4.49662 42 ft 14 kts 311°
2026-05-05 10:55 36.67768 -4.49756 42 ft 15 kts 311°
2026-05-05 10:55 36.67848 -4.49795 41 ft 13 kts 29°
2026-05-05 10:56 36.67905 -4.49735 42 ft 9 kts 41°
2026-05-05 10:56 36.68001 -4.49628 42 ft 24 kts 40°
2026-05-05 10:56 36.68131 -4.49485 42 ft 25 kts 40°
2026-05-05 10:56 36.68256 -4.49345 40 ft 21 kts 41°
2026-05-05 10:57 36.68253 -4.49194 40 ft 18 kts 118°
2026-05-05 10:57 36.68197 -4.49063 40 ft 16 kts 117°
2026-05-05 10:57 36.68146 -4.48939 38 ft 17 kts 117°
2026-05-05 10:57 36.68083 -4.48791 39 ft 20 kts 117°
2026-05-05 10:58 36.68023 -4.48647 39 ft 18 kts 118°
2026-05-05 10:58 36.67968 -4.48516 40 ft 17 kts 117°
2026-05-05 10:58 36.67907 -4.48373 39 ft 19 kts 118°
2026-05-05 10:58 36.67849 -4.48233 38 ft 18 kts 117°
2026-05-05 10:59 36.67824 -4.48097 36 ft 17 kts 57°
2026-05-05 10:59 36.67917 -4.48031 37 ft 14 kts 10°
2026-05-05 10:59 36.67984 -4.48115 38 ft 22 kts 297°
2026-05-05 10:59 36.68171 -4.48562 40 ft 91 kts 297°
2026-05-05 11:00 36.68551 -4.49466 50 ft 142 kts 297°
2026-05-05 11:00 36.69042 -4.50642 440 ft 157 kts 298°
2026-05-05 11:00 36.69642 -4.51790 1172 ft 159 kts 311°
2026-05-05 11:00 36.70432 -4.52818 1733 ft 173 kts 312°
2026-05-05 11:01 36.71314 -4.53971 2054 ft 194 kts 312°
2026-05-05 11:01 36.72271 -4.55223 2603 ft 203 kts 313°
2026-05-05 11:01 36.72904 -4.56051 3040 ft 206 kts 313°
2026-05-05 11:01 36.73653 -4.57033 3583 ft 209 kts 313°
2026-05-05 11:02 36.74642 -4.58330 4333 ft 210 kts 313°
2026-05-05 11:02 36.75814 -4.59419 4996 ft 215 kts 335°
2026-05-05 11:02 36.77260 -4.59978 5674 ft 220 kts 341°
2026-05-05 11:02 36.78743 -4.60508 6391 ft 223 kts 341°
2026-05-05 11:03 36.80294 -4.60942 6937 ft 237 kts 354°
2026-05-05 11:03 36.81957 -4.60629 7548 ft 250 kts 19°
2026-05-05 11:03 36.83455 -4.59441 8172 ft 262 kts 38°
2026-05-05 11:03 36.84859 -4.57907 8747 ft 275 kts 39°
2026-05-05 11:04 36.86330 -4.56281 9270 ft 290 kts 39°
2026-05-05 11:04 36.87872 -4.54570 9798 ft 303 kts 39°
2026-05-05 11:04 36.87938 -4.54497 9825 ft 304 kts 39°
2026-05-05 11:04 36.88545 -4.53823 10008 ft 309 kts 39°
2026-05-05 11:05 36.89194 -4.53103 10198 ft 314 kts 39°
2026-05-05 11:05 36.90863 -4.51257 10691 ft 327 kts 39°
2026-05-05 11:05 36.92596 -4.49343 11184 ft 339 kts 38°
2026-05-05 11:05 36.92873 -4.49037 11259 ft 341 kts 38°
2026-05-05 11:06 36.94423 -4.47323 11685 ft 350 kts 38°
2026-05-05 11:07 36.95755 -4.45858 12059 ft 358 kts 39°
2026-05-05 11:07 36.97454 -4.43518 12567 ft 371 kts 55°
2026-05-05 11:07 36.98530 -4.40546 13082 ft 382 kts 75°
2026-05-05 11:08 36.99090 -4.37267 13613 ft 390 kts 78°
2026-05-05 11:08 36.99632 -4.33908 14107 ft 397 kts 78°
2026-05-05 11:08 37.00182 -4.30485 14580 ft 405 kts 78°
2026-05-05 11:08 37.00733 -4.27057 15051 ft 410 kts 78°
2026-05-05 11:09 37.01305 -4.23534 15544 ft 416 kts 78°
2026-05-05 11:09 37.01887 -4.19964 16041 ft 422 kts 78°
2026-05-05 11:09 37.02475 -4.16349 16523 ft 428 kts 78°
2026-05-05 11:09 37.03074 -4.12648 16535 ft 425 kts 78°
2026-05-05 11:10 37.03658 -4.09037 16527 ft 421 kts 78°
2026-05-05 11:10 37.04237 -4.05446 16534 ft 421 kts 78°
2026-05-05 11:10 37.04809 -4.01903 16542 ft 421 kts 78°
2026-05-05 11:10 37.05395 -3.98259 16542 ft 422 kts 78°
2026-05-05 11:11 37.05963 -3.94709 16540 ft 422 kts 78°
2026-05-05 11:11 37.06539 -3.91109 16546 ft 422 kts 78°
2026-05-05 11:11 37.07115 -3.87506 16542 ft 422 kts 78°
2026-05-05 11:11 37.07688 -3.83908 16551 ft 421 kts 78°
2026-05-05 11:12 37.08259 -3.80315 16555 ft 421 kts 78°
2026-05-05 11:12 37.08829 -3.76718 16551 ft 421 kts 78°
2026-05-05 11:12 37.09398 -3.73115 16584 ft 421 kts 78°
2026-05-05 11:12 37.09969 -3.69509 16582 ft 421 kts 77°
2026-05-05 11:13 37.10818 -3.66012 16581 ft 419 kts 66°
2026-05-05 11:13 37.12134 -3.62755 16584 ft 418 kts 56°
2026-05-05 11:13 37.13859 -3.59843 16583 ft 415 kts 45°
2026-05-05 11:13 37.15851 -3.57245 16586 ft 414 kts 43°
2026-05-05 11:14 37.17870 -3.54646 16987 ft 417 kts 43°
2026-05-05 11:14 37.19874 -3.52061 17561 ft 421 kts 42°
2026-05-05 11:14 37.21926 -3.49412 18104 ft 425 kts 42°
2026-05-05 11:14 37.23991 -3.46742 18586 ft 428 kts 42°
2026-05-05 11:15 37.26072 -3.44046 19040 ft 432 kts 42°
2026-05-05 11:15 37.28173 -3.41320 19434 ft 436 kts 43°
2026-05-05 11:15 37.30291 -3.38569 19867 ft 439 kts 43°
2026-05-05 11:15 37.32425 -3.35795 20311 ft 442 kts 43°
2026-05-05 11:16 37.34572 -3.33002 20751 ft 446 kts 42°
2026-05-05 11:16 37.36735 -3.30187 21175 ft 449 kts 42°
2026-05-05 11:16 37.38912 -3.27358 21601 ft 452 kts 42°
2026-05-05 11:16 37.41104 -3.24506 22007 ft 455 kts 42°
2026-05-05 11:17 37.43309 -3.21632 22445 ft 458 kts 42°
2026-05-05 11:17 37.45526 -3.18738 22888 ft 460 kts 42°
2026-05-05 11:17 37.47758 -3.15818 23271 ft 464 kts 42°
2026-05-05 11:17 37.50007 -3.12874 23631 ft 468 kts 42°
2026-05-05 11:18 37.52238 -3.09950 23970 ft 470 kts 42°
2026-05-05 11:18 37.54507 -3.06972 24297 ft 473 kts 42°
2026-05-05 11:18 37.56789 -3.03973 24590 ft 476 kts 42°
2026-05-05 11:18 37.59090 -3.00953 24883 ft 479 kts 42°
2026-05-05 11:19 37.61161 -2.98238 25162 ft 482 kts 42°
2026-05-05 11:19 37.62496 -2.96487 25348 ft 483 kts 42°
2026-05-05 11:19 37.64830 -2.93425 25646 ft 486 kts 42°
2026-05-05 11:20 37.67175 -2.90343 25953 ft 488 kts 42°
2026-05-05 11:20 37.69533 -2.87234 26268 ft 492 kts 42°
2026-05-05 11:20 37.71910 -2.84097 26516 ft 496 kts 42°
2026-05-05 11:20 37.74299 -2.80940 26785 ft 499 kts 43°
2026-05-05 11:21 37.76700 -2.77759 27061 ft 501 kts 43°
2026-05-05 11:21 37.79116 -2.74559 27363 ft 504 kts 43°
2026-05-05 11:21 37.81543 -2.71341 27637 ft 506 kts 43°
2026-05-05 11:21 37.83981 -2.68107 27898 ft 509 kts 43°
2026-05-05 11:22 37.86431 -2.64859 28150 ft 512 kts 43°
2026-05-05 11:22 37.88892 -2.61593 28421 ft 514 kts 43°
2026-05-05 11:22 37.91367 -2.58303 28686 ft 516 kts 43°
2026-05-05 11:22 37.93852 -2.54991 28928 ft 519 kts 43°
2026-05-05 11:23 37.96316 -2.51701 29093 ft 523 kts 43°
2026-05-05 11:23 37.98825 -2.48348 29325 ft 525 kts 43°
2026-05-05 11:23 38.01343 -2.44985 29628 ft 526 kts 43°
2026-05-05 11:23 38.03861 -2.41622 29970 ft 525 kts 43°
2026-05-05 11:24 38.06379 -2.38254 30285 ft 525 kts 43°
2026-05-05 11:24 38.08895 -2.34885 30573 ft 526 kts 43°
2026-05-05 11:24 38.11407 -2.31518 30873 ft 525 kts 43°
2026-05-05 11:24 38.13913 -2.28153 31181 ft 523 kts 43°
2026-05-05 11:25 38.16418 -2.24786 31525 ft 522 kts 43°
2026-05-05 11:25 38.18908 -2.21430 31853 ft 523 kts 43°
2026-05-05 11:25 38.21351 -2.17998 32091 ft 525 kts 48°
2026-05-05 11:25 38.23620 -2.14344 32367 ft 526 kts 49°
2026-05-05 11:26 38.25856 -2.10735 32666 ft 525 kts 49°
2026-05-05 11:26 38.28116 -2.07088 32984 ft 523 kts 49°
2026-05-05 11:26 38.30366 -2.03452 33260 ft 522 kts 49°
2026-05-05 11:26 38.32611 -1.99815 33519 ft 522 kts 49°
2026-05-05 11:27 38.34852 -1.96177 33805 ft 522 kts 49°
2026-05-05 11:27 38.37094 -1.92538 33964 ft 522 kts 49°
2026-05-05 11:27 38.39337 -1.88897 33979 ft 521 kts 50°
2026-05-05 11:28 38.43802 -1.81638 33986 ft 520 kts 50°
2026-05-05 11:28 38.48255 -1.74371 33989 ft 520 kts 50°
2026-05-05 11:29 38.52707 -1.67099 33985 ft 519 kts 50°
2026-05-05 11:29 38.57163 -1.59820 33986 ft 520 kts 50°
2026-05-05 11:30 38.61582 -1.52566 33959 ft 520 kts 50°
2026-05-05 11:30 38.66012 -1.45253 34008 ft 519 kts 50°
2026-05-05 11:31 38.70445 -1.37940 33992 ft 520 kts 50°
2026-05-05 11:31 38.74875 -1.30623 33985 ft 520 kts 50°
2026-05-05 11:32 38.79311 -1.23296 33979 ft 520 kts 50°
2026-05-05 11:32 38.83742 -1.15963 33966 ft 520 kts 50°
2026-05-05 11:33 38.88155 -1.08613 33954 ft 520 kts 51°
2026-05-05 11:33 38.92567 -1.01237 33958 ft 521 kts 50°
2026-05-05 11:34 38.96998 -0.93842 33944 ft 522 kts 50°
2026-05-05 11:34 39.01428 -0.86433 33934 ft 523 kts 50°
2026-05-05 11:35 39.05862 -0.79069 33932 ft 523 kts 47°
2026-05-05 11:35 39.11140 -0.72713 33929 ft 519 kts 36°
2026-05-05 11:36 39.16721 -0.66792 33951 ft 520 kts 36°
2026-05-05 11:36 39.21388 -0.61797 33937 ft 520 kts 36°
2026-05-05 11:37 39.26918 -0.55870 33931 ft 520 kts 36°
2026-05-05 11:37 39.32558 -0.50036 33918 ft 519 kts 33°
2026-05-05 11:38 39.38366 -0.44490 33932 ft 519 kts 31°
2026-05-05 11:38 39.44197 -0.38981 33908 ft 520 kts 32°
2026-05-05 11:39 39.49995 -0.33366 33902 ft 521 kts 33°
2026-05-05 11:39 39.55765 -0.27680 33925 ft 521 kts 33°
2026-05-05 11:40 39.61539 -0.21985 33951 ft 522 kts 33°
2026-05-05 11:40 39.67334 -0.16306 33929 ft 522 kts 33°
2026-05-05 11:41 39.73131 -0.10610 33920 ft 522 kts 33°
2026-05-05 11:41 39.78916 -0.04883 33919 ft 523 kts 33°
2026-05-05 11:42 39.84546 0.01146 33924 ft 528 kts 43°
2026-05-05 11:42 39.89580 0.08119 33923 ft 529 kts 44°
2026-05-05 11:43 39.94593 0.15088 33931 ft 529 kts 44°
2026-05-05 11:43 39.99511 0.21939 33927 ft 530 kts 45°
2026-05-05 11:44 40.04548 0.28983 33978 ft 531 kts 45°
2026-05-05 11:44 40.09403 0.35768 33949 ft 531 kts 45°
2026-05-05 11:45 40.14448 0.42830 33923 ft 531 kts 45°
2026-05-05 11:45 40.19428 0.49826 33926 ft 532 kts 45°
2026-05-05 11:46 40.24459 0.56917 33929 ft 532 kts 45°
2026-05-05 11:46 40.29182 0.63594 33967 ft 532 kts 45°
2026-05-05 11:47 40.34211 0.70716 33956 ft 532 kts 45°
2026-05-05 11:47 40.38593 0.76925 33918 ft 532 kts 45°
2026-05-05 11:48 40.46121 0.87636 33921 ft 533 kts 46°
2026-05-05 11:48 40.51137 0.94807 33956 ft 533 kts 46°
2026-05-05 11:49 40.56145 1.01982 33945 ft 533 kts 46°
2026-05-05 11:49 40.61157 1.09166 33943 ft 533 kts 46°
2026-05-05 11:50 40.66154 1.16361 33910 ft 533 kts 46°
2026-05-05 11:50 40.71152 1.23582 33921 ft 533 kts 46°
2026-05-05 11:51 40.76157 1.30814 33923 ft 534 kts 46°
2026-05-05 11:51 40.81140 1.38001 33928 ft 534 kts 46°
2026-05-05 11:52 40.86140 1.45255 33932 ft 534 kts 46°
2026-05-05 11:52 40.91142 1.52538 33982 ft 534 kts 46°
2026-05-05 11:53 40.96140 1.59832 33934 ft 535 kts 46°
2026-05-05 11:53 41.01129 1.67143 33932 ft 535 kts 46°
2026-05-05 11:54 41.06120 1.74467 33936 ft 535 kts 46°
2026-05-05 11:54 41.11115 1.81791 33937 ft 536 kts 46°
2026-05-05 11:55 41.16109 1.89142 33964 ft 536 kts 47°
2026-05-05 11:55 41.21093 1.96507 33932 ft 536 kts 47°
2026-05-05 11:56 41.26037 2.03833 33933 ft 536 kts 48°
2026-05-05 11:56 41.30182 2.12038 33934 ft 535 kts 66°
2026-05-05 11:57 41.32587 2.21310 33935 ft 528 kts 81°
2026-05-05 11:57 41.34274 2.30814 33934 ft 528 kts 81°
2026-05-05 11:58 41.35958 2.40323 33933 ft 528 kts 81°
2026-05-05 11:58 41.37629 2.49799 33933 ft 528 kts 81°
2026-05-05 11:59 41.39295 2.59333 33932 ft 528 kts 81°
2026-05-05 11:59 41.40943 2.68860 33895 ft 528 kts 81°
2026-05-05 12:00 41.42589 2.78417 33931 ft 529 kts 81°
2026-05-05 12:00 41.44019 2.86706 33934 ft 529 kts 81°
2026-05-05 12:01 41.45657 2.96267 33940 ft 529 kts 81°
2026-05-05 12:01 41.47279 3.05838 33903 ft 529 kts 81°
2026-05-05 12:02 41.48881 3.15329 33912 ft 528 kts 82°
2026-05-05 12:02 41.50496 3.24894 33924 ft 528 kts 82°
2026-05-05 12:03 41.52098 3.34450 33974 ft 528 kts 82°
2026-05-05 12:03 41.53686 3.44015 33964 ft 528 kts 82°
2026-05-05 12:04 41.55265 3.53590 33959 ft 528 kts 82°
2026-05-05 12:04 41.56843 3.63164 33946 ft 528 kts 82°
2026-05-05 12:05 41.58415 3.72743 33940 ft 528 kts 82°
2026-05-05 12:05 41.59963 3.82318 33905 ft 527 kts 82°
2026-05-05 12:06 41.61505 3.91899 33926 ft 527 kts 82°
2026-05-05 12:06 41.63055 4.01491 33935 ft 527 kts 82°
2026-05-05 12:07 41.64530 4.10653 33933 ft 527 kts 82°
2026-05-05 12:07 41.66058 4.20243 33908 ft 527 kts 82°
2026-05-05 12:08 41.67529 4.29572 33927 ft 527 kts 83°
2026-05-05 12:08 41.69028 4.39140 33937 ft 527 kts 83°
2026-05-05 12:09 41.70535 4.48749 33963 ft 527 kts 83°
2026-05-05 12:09 41.72094 4.58348 33922 ft 529 kts 78°
2026-05-05 12:10 41.75022 4.67422 33938 ft 535 kts 58°
2026-05-05 12:10 41.79695 4.75061 33945 ft 533 kts 42°
2026-05-05 12:11 41.84991 4.82031 33946 ft 534 kts 43°
2026-05-05 12:11 41.90280 4.89044 33969 ft 534 kts 43°
2026-05-05 12:12 41.95559 4.96065 33932 ft 534 kts 43°
2026-05-05 12:12 42.00842 5.03088 33945 ft 534 kts 43°
2026-05-05 12:13 42.06120 5.10120 33949 ft 534 kts 43°
2026-05-05 12:13 42.11345 5.17123 33989 ft 533 kts 43°
2026-05-05 12:14 42.16604 5.24181 33980 ft 533 kts 43°
2026-05-05 12:14 42.21857 5.31235 33975 ft 532 kts 43°
2026-05-05 12:15 42.27106 5.38299 33948 ft 532 kts 43°
2026-05-05 12:15 42.32337 5.45367 33979 ft 531 kts 43°
2026-05-05 12:16 42.37555 5.52440 33978 ft 531 kts 43°
2026-05-05 12:16 42.42762 5.59519 33975 ft 530 kts 43°
2026-05-05 12:17 42.47931 5.66545 34003 ft 530 kts 44°
2026-05-05 12:17 42.53122 5.73623 33968 ft 528 kts 43°
2026-05-05 12:18 42.58298 5.80701 33969 ft 528 kts 43°
2026-05-05 12:18 42.63460 5.87791 33967 ft 527 kts 44°
2026-05-05 12:19 42.68613 5.94877 33966 ft 527 kts 44°
2026-05-05 12:19 42.73773 6.01975 33963 ft 527 kts 44°
2026-05-05 12:20 42.78926 6.09084 33934 ft 527 kts 43°
2026-05-05 12:20 42.84063 6.16211 33943 ft 527 kts 43°
2026-05-05 12:21 42.89535 6.22803 33991 ft 524 kts 37°
2026-05-05 12:21 42.94167 6.28110 33994 ft 523 kts 37°
2026-05-05 12:22 42.99735 6.34493 33989 ft 522 kts 37°
2026-05-05 12:22 43.06188 6.41913 34004 ft 521 kts 38°
2026-05-05 12:23 43.10793 6.47225 33976 ft 520 kts 38°
2026-05-05 12:23 43.16305 6.53610 33971 ft 518 kts 38°
2026-05-05 12:24 43.21685 6.60180 33973 ft 519 kts 46°
2026-05-05 12:24 43.26095 6.68024 33989 ft 519 kts 54°
2026-05-05 12:25 43.30330 6.76042 33990 ft 518 kts 54°
2026-05-05 12:25 43.34561 6.84040 33987 ft 517 kts 54°
2026-05-05 12:26 43.38751 6.92001 33956 ft 517 kts 53°
2026-05-05 12:26 43.42960 7.00031 33994 ft 517 kts 54°
2026-05-05 12:27 43.47154 7.08060 34000 ft 515 kts 54°
2026-05-05 12:27 43.51321 7.16069 33994 ft 514 kts 54°
2026-05-05 12:28 43.55484 7.24089 33985 ft 513 kts 54°
2026-05-05 12:28 43.59632 7.32091 33984 ft 513 kts 54°
2026-05-05 12:29 43.63778 7.40105 33999 ft 512 kts 54°
2026-05-05 12:29 43.67905 7.48103 33993 ft 511 kts 55°
2026-05-05 12:30 43.72019 7.56112 33980 ft 510 kts 55°
2026-05-05 12:30 43.76097 7.64069 33961 ft 510 kts 55°
2026-05-05 12:31 43.80202 7.72064 33980 ft 509 kts 52°
2026-05-05 12:31 43.85168 7.78992 33983 ft 506 kts 36°
2026-05-05 12:32 43.90735 7.84961 33980 ft 506 kts 38°
2026-05-05 12:32 43.95506 7.92123 33807 ft 506 kts 56°
2026-05-05 12:33 43.97276 7.96323 33499 ft 502 kts 65°
2026-05-05 12:33 43.98791 8.00682 32284 ft 500 kts 66°
2026-05-05 12:33 44.00224 8.05016 30951 ft 501 kts 67°
2026-05-05 12:33 44.01635 8.09447 29594 ft 501 kts 68°
2026-05-05 12:34 44.03021 8.13886 28129 ft 500 kts 68°
2026-05-05 12:34 44.04401 8.18308 26751 ft 498 kts 67°
2026-05-05 12:34 44.05777 8.22683 25947 ft 485 kts 67°
2026-05-05 12:34 44.07074 8.26922 25325 ft 468 kts 68°
2026-05-05 12:35 44.08289 8.31053 24680 ft 454 kts 69°
2026-05-05 12:35 44.09446 8.35101 24044 ft 450 kts 69°
2026-05-05 12:35 44.10589 8.39154 23407 ft 450 kts 69°
2026-05-05 12:35 44.11712 8.43143 22794 ft 448 kts 69°
2026-05-05 12:36 44.12851 8.47155 22189 ft 445 kts 69°
2026-05-05 12:36 44.13989 8.51138 21654 ft 441 kts 69°
2026-05-05 12:36 44.15118 8.55076 21109 ft 437 kts 70°
2026-05-05 12:36 44.16243 8.58989 20610 ft 433 kts 70°
2026-05-05 12:37 44.17397 8.62846 20098 ft 430 kts 65°
2026-05-05 12:37 44.18999 8.66337 19614 ft 427 kts 51°
2026-05-05 12:37 44.21105 8.69207 19120 ft 423 kts 36°
2026-05-05 12:37 44.23609 8.71312 18635 ft 418 kts 22°
2026-05-05 12:38 44.26349 8.72553 18130 ft 411 kts
2026-05-05 12:38 44.29167 8.72940 17621 ft 404 kts 358°
2026-05-05 12:38 44.31966 8.73051 17117 ft 401 kts 358°
2026-05-05 12:38 44.34647 8.73163 16626 ft 399 kts 358°
2026-05-05 12:39 44.37380 8.73284 16127 ft 397 kts 358°
2026-05-05 12:39 44.40168 8.73411 15589 ft 395 kts 358°
2026-05-05 12:39 44.42873 8.73533 15076 ft 394 kts 358°
2026-05-05 12:39 44.45606 8.73655 14541 ft 392 kts 358°
2026-05-05 12:40 44.48325 8.73773 14009 ft 391 kts 358°
2026-05-05 12:40 44.51047 8.73889 13425 ft 391 kts 358°
2026-05-05 12:40 44.53759 8.74006 12868 ft 388 kts 358°
2026-05-05 12:40 44.56449 8.74124 12311 ft 385 kts 359°
2026-05-05 12:41 44.59102 8.74245 12064 ft 374 kts 359°
2026-05-05 12:41 44.61659 8.74363 11934 ft 360 kts 359°
2026-05-05 12:41 44.64121 8.74475 11805 ft 348 kts 358°
2026-05-05 12:41 44.66501 8.74580 11688 ft 337 kts 359°
2026-05-05 12:42 44.68803 8.74699 11561 ft 327 kts
2026-05-05 12:42 44.71014 8.75274 11406 ft 321 kts 13°
2026-05-05 12:42 44.73146 8.76138 11106 ft 318 kts 14°
2026-05-05 12:42 44.75268 8.77001 10762 ft 317 kts 14°
2026-05-05 12:43 44.77378 8.77862 10421 ft 315 kts 14°
2026-05-05 12:43 44.79473 8.78718 10006 ft 310 kts 14°
2026-05-05 12:43 44.81535 8.79562 9353 ft 308 kts 14°
2026-05-05 12:43 44.83585 8.80403 8700 ft 305 kts 14°
2026-05-05 12:44 44.85614 8.81237 8055 ft 302 kts 15°
2026-05-05 12:44 44.87627 8.82061 7636 ft 300 kts 15°
2026-05-05 12:44 44.89620 8.82880 7265 ft 298 kts 15°
2026-05-05 12:44 44.91605 8.83696 6874 ft 297 kts 15°
2026-05-05 12:45 44.93582 8.84510 6495 ft 295 kts 15°
2026-05-05 12:45 44.95518 8.85308 6115 ft 293 kts 16°
2026-05-05 12:45 44.97462 8.86109 5743 ft 289 kts 16°
2026-05-05 12:45 44.99397 8.86905 5355 ft 287 kts 16°
2026-05-05 12:46 45.01279 8.87685 5205 ft 276 kts 16°
2026-05-05 12:46 45.03082 8.88432 5079 ft 264 kts 16°
2026-05-05 12:46 45.04789 8.89221 5000 ft 251 kts 26°
2026-05-05 12:46 45.06121 8.90658 5005 ft 237 kts 51°
2026-05-05 12:47 45.06888 8.92680 5010 ft 234 kts 76°
2026-05-05 12:47 45.06995 8.94941 5008 ft 226 kts 101°
2026-05-05 12:47 45.06491 8.96948 5004 ft 211 kts 123°
2026-05-05 12:47 45.05544 8.98468 5007 ft 204 kts 145°
2026-05-05 12:48 45.04298 8.99390 5009 ft 202 kts 165°
2026-05-05 12:48 45.02916 8.99630 4999 ft 201 kts 186°
2026-05-05 12:48 45.01549 8.99278 5006 ft 199 kts 197°
2026-05-05 12:48 45.00341 8.98371 4921 ft 198 kts 224°
2026-05-05 12:49 44.99633 8.96787 4816 ft 187 kts 253°
2026-05-05 12:49 44.99583 8.95055 4748 ft 175 kts 281°
2026-05-05 12:49 45.00092 8.93559 4700 ft 165 kts 309°
2026-05-05 12:49 45.00945 8.92515 4692 ft 161 kts 320°
2026-05-05 12:50 45.01825 8.91545 4654 ft 160 kts 320°
2026-05-05 12:50 45.02703 8.90575 4618 ft 160 kts 320°
2026-05-05 12:50 45.03580 8.89607 4583 ft 160 kts 322°
2026-05-05 12:50 45.04560 8.88865 4550 ft 160 kts 340°
2026-05-05 12:51 45.05643 8.88507 4517 ft 161 kts 348°
2026-05-05 12:51 45.06740 8.88212 4480 ft 160 kts 349°
2026-05-05 12:51 45.07835 8.87918 4438 ft 160 kts 349°
2026-05-05 12:51 45.08927 8.87622 4405 ft 160 kts 348°
2026-05-05 12:52 45.10019 8.87326 4368 ft 160 kts 348°
2026-05-05 12:52 45.11111 8.87028 4330 ft 160 kts 348°
2026-05-05 12:52 45.12203 8.86730 4294 ft 160 kts 348°
2026-05-05 12:52 45.13298 8.86435 4259 ft 160 kts 348°
2026-05-05 12:53 45.14389 8.86141 4227 ft 159 kts 349°
2026-05-05 12:53 45.15468 8.85852 4195 ft 157 kts 349°
2026-05-05 12:53 45.16542 8.85563 4154 ft 157 kts 349°
2026-05-05 12:53 45.17614 8.85273 4117 ft 157 kts 348°
2026-05-05 12:54 45.19741 8.84693 4045 ft 157 kts 348°
2026-05-05 12:54 45.20814 8.84401 4013 ft 157 kts 349°
2026-05-05 12:54 45.21884 8.84111 3978 ft 157 kts 348°
2026-05-05 12:55 45.22951 8.83820 3966 ft 155 kts 348°
2026-05-05 12:55 45.24018 8.83529 4004 ft 158 kts 349°
2026-05-05 12:55 45.25108 8.83325 4041 ft 158 kts
2026-05-05 12:55 45.26209 8.83285 4050 ft 159 kts 355°
2026-05-05 12:56 45.27309 8.83082 4054 ft 159 kts 351°
2026-05-05 12:56 45.28399 8.82823 4053 ft 159 kts 350°
2026-05-05 12:56 45.29487 8.82542 4056 ft 158 kts 349°
2026-05-05 12:56 45.30568 8.82254 4055 ft 158 kts 349°
2026-05-05 12:57 45.31654 8.81960 4059 ft 159 kts 349°
2026-05-05 12:57 45.32738 8.81665 4057 ft 159 kts 349°
2026-05-05 12:57 45.33824 8.81369 4058 ft 159 kts 349°
2026-05-05 12:57 45.34907 8.81073 4057 ft 159 kts 349°
2026-05-05 12:58 45.35991 8.80777 4060 ft 158 kts 349°
2026-05-05 12:58 45.37073 8.80481 4059 ft 158 kts 349°
2026-05-05 12:58 45.38162 8.80183 3940 ft 159 kts 349°
2026-05-05 12:58 45.39244 8.79887 3812 ft 158 kts 349°
2026-05-05 12:59 45.40326 8.79591 3678 ft 158 kts 349°
2026-05-05 12:59 45.41391 8.79299 3563 ft 158 kts 349°
2026-05-05 12:59 45.42470 8.79004 3437 ft 157 kts 349°
2026-05-05 13:00 45.44622 8.78414 3145 ft 158 kts 352°
2026-05-05 13:00 45.45700 8.78118 3064 ft 158 kts 351°
2026-05-05 13:01 45.48884 8.77244 3012 ft 152 kts 352°
2026-05-05 13:01 45.49913 8.76961 2980 ft 150 kts 351°
2026-05-05 13:01 45.50934 8.76680 2841 ft 149 kts 353°
2026-05-05 13:01 45.51951 8.76401 2663 ft 148 kts 351°
2026-05-05 13:02 45.52961 8.76123 2470 ft 147 kts 352°
2026-05-05 13:02 45.53959 8.75874 2264 ft 146 kts 353°
2026-05-05 13:02 45.54940 8.75587 2067 ft 143 kts 351°
2026-05-05 13:02 45.55911 8.75299 1882 ft 141 kts 349°
2026-05-05 13:03 45.56876 8.75054 1732 ft 141 kts 352°
2026-05-05 13:03 45.57836 8.74784 1522 ft 139 kts 350°
2026-05-05 13:03 45.58782 8.74521 1348 ft 138 kts 351°
2026-05-05 13:03 45.59715 8.74245 1158 ft 135 kts 349°
2026-05-05 13:04 45.60640 8.73995 940 ft 136 kts 349°
2026-05-05 13:04 45.61566 8.73748 789 ft 134 kts 349°
2026-05-05 13:04 45.62460 8.73509 721 ft 120 kts 349°
2026-05-05 13:04 45.63013 8.73355 715 ft 41 kts 349°
2026-05-05 13:05 45.63276 8.73283 714 ft 36 kts 349°
2026-05-05 13:05 45.63514 8.73217 718 ft 33 kts 348°
2026-05-05 13:05 45.63737 8.73153 718 ft 32 kts 349°
2026-05-05 13:05 45.63957 8.73093 719 ft 32 kts 349°
2026-05-05 13:06 45.64173 8.73033 714 ft 31 kts 349°
2026-05-05 13:06 45.64303 8.72911 716 ft 18 kts 307°
2026-05-05 13:06 45.64377 8.72753 720 ft 20 kts 304°
2026-05-05 13:06 45.64453 8.72662 719 ft 13 kts 344°
2026-05-05 13:07 45.64551 8.72634 720 ft 15 kts 349°
2026-05-05 13:07 45.64610 8.72614 718 ft 7 kts 331°
2026-05-05 13:07 45.64611 8.72557 719 ft 5 kts 255°
2026-05-05 13:07 45.64605 8.72516 717 ft 2 kts 259°
2026-05-05 13:08 45.64603 8.72505 718 ft 1 kts 259°
2026-05-05 13:08 45.64603 8.72504 718 ft 0 kts 259°